TimeCST,TemperatureF,Dew PointF,Humidity,Sea Level PressureIn,VisibilityMPH,Wind Direction,Wind SpeedMPH,Gust SpeedMPH,PrecipitationIn,Events,Conditions,WindDirDegrees,DateUTC
12:54 AM,30.9,21.9,69,30.03,9.0,ESE,13.8,-,N/A,,Overcast,120,2013-03-04 06:54:00
1:54 AM,30.0,25.0,82,29.99,3.0,East,15.0,-,0.00,Snow,Light Snow,100,2013-03-04 07:54:00
2:51 AM,30.2,26.6,86,29.96,8.0,ESE,12.7,-,0.00,Rain,Light Freezing Rain,120,2013-03-04 08:51:00
2:54 AM,30.0,26.1,85,29.98,8.0,ESE,13.8,-,0.01,Rain,Light Freezing Rain,120,2013-03-04 08:54:00
3:06 AM,30.2,26.6,86,29.94,10.0,ESE,15.0,-,0.00,,Overcast,120,2013-03-04 09:06:00
3:54 AM,30.9,26.1,82,29.94,10.0,ESE,16.1,24.2,0.00,,Overcast,120,2013-03-04 09:54:00
4:54 AM,30.9,26.1,82,29.93,10.0,ESE,15.0,-,N/A,,Mostly Cloudy,120,2013-03-04 10:54:00
5:54 AM,30.9,26.1,82,29.91,10.0,SE,18.4,-,N/A,,Scattered Clouds,130,2013-03-04 11:54:00
6:54 AM,30.9,26.1,82,29.90,10.0,SE,18.4,-,N/A,,Scattered Clouds,130,2013-03-04 12:54:00
7:54 AM,32.0,26.1,79,29.89,10.0,SE,17.3,-,N/A,,Partly Cloudy,130,2013-03-04 13:54:00
8:54 AM,33.1,26.1,75,29.88,10.0,ESE,17.3,-,N/A,,Clear,120,2013-03-04 14:54:00
9:54 AM,35.1,27.0,72,29.88,10.0,SE,13.8,23.0,N/A,,Clear,130,2013-03-04 15:54:00
10:54 AM,37.0,26.1,65,29.84,10.0,ESE,18.4,-,N/A,,Clear,120,2013-03-04 16:54:00
11:54 AM,37.9,26.1,62,29.85,10.0,ESE,10.4,-,N/A,,Clear,120,2013-03-04 17:54:00
12:54 PM,39.0,26.1,60,29.83,10.0,ESE,15.0,-,N/A,,Partly Cloudy,120,2013-03-04 18:54:00
1:54 PM,39.0,27.0,62,29.82,10.0,East,9.2,-,N/A,,Scattered Clouds,100,2013-03-04 19:54:00
2:54 PM,39.0,28.0,65,29.80,10.0,ESE,11.5,20.7,N/A,,Clear,110,2013-03-04 20:54:00
3:54 PM,39.0,28.9,67,29.80,10.0,East,11.5,-,N/A,,Clear,90,2013-03-04 21:54:00
4:54 PM,37.9,28.9,70,29.82,10.0,ENE,11.5,-,N/A,,Clear,70,2013-03-04 22:54:00
5:54 PM,37.0,28.0,70,29.84,10.0,East,12.7,-,N/A,,Clear,80,2013-03-04 23:54:00
6:54 PM,36.0,28.0,73,29.86,10.0,East,13.8,-,N/A,,Unknown,80,2013-03-05 00:54:00
7:54 PM,35.1,28.0,76,29.86,10.0,East,15.0,-,N/A,,Clear,90,2013-03-05 01:54:00
8:54 PM,34.0,27.0,75,29.87,10.0,East,13.8,-,N/A,,Partly Cloudy,90,2013-03-05 02:54:00
9:54 PM,34.0,27.0,75,29.87,10.0,East,11.5,-,N/A,,Overcast,100,2013-03-05 03:54:00
10:54 PM,34.0,27.0,75,29.87,10.0,East,8.1,-,N/A,,Overcast,80,2013-03-05 04:54:00
11:54 PM,34.0,28.0,79,29.88,10.0,NE,6.9,-,0.00,Rain,Light Rain,40,2013-03-05 05:54:00